Location: Unspecified
(50.0330°N, 0.0000°E)
Time: 04:20:49
(UTC+00:00)

CHECKMATE 7 - Visible Passes

Search period start: 04 April 2026 00:00
Search period end: 14 April 2026 00:00
Orbit: 940 x 951 km, 81.0° (Epoch: 29 March)

Date Brightness Start Highest point End Pass type
(mag) Time Alt. Az. Time Alt. Az. Time Alt. Az.
4 Apr ? 19:46:48 15° ESE 19:50:00 22° E 19:54:32 10° NE visible
4 Apr ? 21:30:45 26° SSW 21:34:23 72° WNW 21:40:31 10° N visible
4 Apr ? 23:17:05 10° W 23:20:36 15° NW 23:24:08 10° NNW visible
5 Apr ? 20:01:55 15° SE 20:06:10 32° E 20:11:30 10° NNE visible
5 Apr ? 21:45:50 14° SW 21:50:57 49° WNW 21:56:54 10° N visible
5 Apr ? 23:36:12 10° WNW 23:37:38 11° NW 23:39:04 10° NNW visible
6 Apr ? 20:16:45 11° SSE 20:22:25 48° E 20:28:15 10° NNE visible
6 Apr ? 22:02:06 10° SW 22:07:37 34° WNW 22:13:09 10° N visible
7 Apr ? 20:32:41 10° S 20:38:46 70° E 20:44:51 10° NNE visible
7 Apr ? 22:19:30 10° WSW 22:24:23 24° WNW 22:29:17 10° N visible
8 Apr ? 20:49:04 10° SSW 20:55:12 81° WNW 21:01:21 10° N visible
8 Apr ? 22:37:19 10° W 22:41:16 17° NW 22:45:12 10° NNW visible
9 Apr ? 19:22:00 10° SE 19:27:05 28° E 19:32:10 10° NNE visible
9 Apr ? 21:05:44 10° SSW 21:11:43 56° WNW 21:17:45 10° N visible
9 Apr ? 22:55:52 10° WNW 22:58:15 12° NW 23:00:38 10° NNW visible
10 Apr ? 19:37:37 10° SSE 19:43:18 42° E 19:48:59 10° NNE visible
10 Apr ? 21:22:42 10° SW 21:28:21 39° WNW 21:34:03 10° N visible
11 Apr ? 04:41:04 10° NNE 04:43:23 12° NE 04:45:41 10° ENE visible
11 Apr ? 19:53:37 10° S 19:59:37 62° E 20:05:38 10° NNE visible
11 Apr ? 21:39:58 10° WSW 21:45:05 27° WNW 21:50:14 10° N visible
12 Apr ? 20:09:53 10° S 20:16:01 89° ESE 20:22:10 10° NNE visible
12 Apr ? 21:57:37 10° WSW 22:01:55 19° WNW 22:06:14 10° NNW visible
13 Apr ? 20:26:27 10° SSW 20:32:31 63° WNW 20:38:36 10° N visible
13 Apr ? 22:15:51 10° W 22:18:52 14° NW 22:21:54 10° NNW visible
